This demonstration page uses our WeatherBlox Daily Observations layout. Learn more.

Left ArrowRight Arrow

Hourly Observations for June 5, 2015

Temp ( °F °C ) Dew Point ( °F °C ) Humidity (%) Winds ( mph kmh ) Pressure ( in mb ) Visibility ( mi km ) Precip ( " mm )
12:51 am 00:51 Cloudy with Light Rain 75 23.9 49 9.4 40 40 VRB 5 7 29.77 1008 10 16 0.00 0.03
1:51 am 01:51 Mostly Cloudy 75 23.9 49 9.4 40 40 E 9 15 29.75 1008 10 16 0.00 0.03
2:51 am 02:51 Mostly Clear 75 23.9 50 10 41 41 SE 16 26 29.74 1007 10 16 0.00 0.00
3:51 am 03:51 Mostly Cloudy 74 23.3 50 10 43 43 E 5 7 29.75 1008 10 16 0.00 0.00
4:51 am 04:51 Mostly Cloudy 75 23.9 49 9.4 40 40 ESE 8 13 29.75 1008 10 16 0.00 0.00
5:51 am 05:51 Mostly Cloudy 75 23.9 48 8.9 39 39 E 12 19 29.78 1008 10 16 0.00 0.00
6:51 am 06:51 Partly Cloudy 76 24.4 49 9.4 39 39 ESE 7 11 29.79 1009 10 16 0.00 0.00
7:51 am 07:51 Sunny 73 22.8 54 12.2 51 51 NW 3 6 29.81 1010 10 16 0.00 0.00
8:51 am 08:51 Sunny 77 25 52 11.1 42 42 SSE 5 7 29.81 1010 10 16 0.00 0.00
9:51 am 09:51 Sunny 83 28.3 45 7.2 26 26 SSE 14 22 29.80 1009 10 16 0.00 0.00
10:51 am 10:51 Mostly Cloudy 84 28.9 45 7.2 25 25 SSE 15 24 29.80 1009 10 16 0.00 0.00
11:51 am 11:51 Mostly Cloudy 86 30 47 8.3 26 26 S 8 13 29.79 1009 10 16 0.00 0.00
12:51 pm 12:51 Cloudy 87 30.6 44 6.7 22 22 SW 9 15 29.78 1008 10 16 0.00 0.00
1:21 pm 13:21 Cloudy 82 27.8 50 10 33 33 NNW 20 31 29.74 1007 10 16 0.00 0.00
1:51 pm 13:51 Mostly Cloudy 83 28.3 50 10 32 32 N 16 26 29.77 1008 10 16 0.00 0.00
2:51 pm 14:51 Mostly Sunny 87 30.6 48 8.9 26 26 ENE 13 20 29.74 1007 10 16 0.00 0.00
3:51 pm 15:51 Mostly Sunny 88 31.1 45 7.2 22 22 E 10 17 29.73 1007 10 16 0.00 0.00
4:51 pm 16:51 Sunny 88 31.1 46 7.8 23 23 E 12 19 29.70 1006 10 16 0.00 0.00
5:51 pm 17:51 Mostly Cloudy 88 31.1 42 5.6 20 20 SSE 8 13 29.68 1005 10 16 0.00 0.00
6:51 pm 18:51 Mostly Sunny 88 31.1 39 3.9 18 18 S 16 26 29.69 1005 10 16 0.00 0.00
7:51 pm 19:51 Mostly Clear 86 30 40 4.4 20 20 SSE 14 22 29.70 1006 10 16 0.00 0.00
8:51 pm 20:51 Clear 84 28.9 40 4.4 21 21 SE 7 11 29.70 1006 10 16 0.00 0.00
9:51 pm 21:51 Clear 83 28.3 40 4.4 22 22 SE 8 13 29.71 1006 10 16 0.00 0.00
10:51 pm 22:51 Clear 81 27.2 41 5 24 24 SE 8 13 29.71 1006 10 16 0.00 0.00
11:51 pm 23:51 Clear 78 25.6 42 5.6 28 28 S 5 7 29.72 1006 10 16 0.00 0.00

Powered by AerisWeather